| time (UTC) | temp C | wind direction | speed KPH | gust KPH | rain 1hr cm | rain 24hr cm | rain mn cm | humidity % | barometer mb |
| 20260507031005 | 17 | 261 | 0.0 | 0.0 | 0.00 | 0.00 | 0.00 | 57 | 1005.8 |
| 20260507030519 | 17 | 261 | 0.0 | 0.0 | 0.00 | 0.00 | 0.00 | 57 | 1005.7 |
| 20260507030030 | 17 | 225 | 0.0 | 0.0 | 0.00 | 0.00 | 0.00 | 57 | 1005.7 |
| 20260507025543 | 17 | 225 | 0.0 | 0.0 | 0.00 | 0.00 | 0.00 | 57 | 1005.7 |
| 20260507025053 | 17 | 225 | 0.0 | 0.0 | 0.00 | 0.00 | 0.00 | 57 | 1005.7 |
| 20260507024514 | 17 | 225 | 0.0 | 0.0 | 0.00 | 0.00 | 0.00 | 57 | 1005.6 |
| 20260507024018 | 17 | 227 | 0.0 | 0.0 | 0.00 | 0.00 | 0.00 | 57 | 1005.6 |
| 20260507023532 | 17 | 266 | 0.0 | 0.0 | 0.00 | 0.00 | 0.00 | 57 | 1005.7 |
| 20260507023044 | 17 | 266 | 0.0 | 0.0 | 0.00 | 0.00 | 0.00 | 57 | 1005.8 |
| 20260507022557 | 17 | 266 | 0.0 | 0.0 | 0.00 | 0.00 | 0.00 | 57 | 1005.9 |
| 20260507022009 | 16 | 127 | 0.0 | 0.0 | 0.00 | 0.00 | 0.00 | 57 | 1005.7 |
| 20260507021522 | 16 | 192 | 0.0 | 0.0 | 0.00 | 0.00 | 0.00 | 57 | 1005.6 |
| 20260507021032 | 16 | 192 | 0.0 | 0.0 | 0.00 | 0.00 | 0.00 | 57 | 1005.7 |
| 20260507020546 | 16 | 142 | 0.0 | 0.0 | 0.00 | 0.00 | 0.00 | 57 | 1005.7 |
| 20260507020115 | 16 | 219 | 0.0 | 0.0 | 0.00 | 0.00 | 0.00 | 57 | 1005.8 |
| 20260507015516 | 16 | 219 | 0.0 | 0.0 | 0.00 | 0.00 | 0.00 | 57 | 1005.8 |
| 20260507015025 | 16 | 227 | 0.0 | 0.0 | 0.00 | 0.00 | 0.00 | 57 | 1005.8 |
| 20260507014543 | 16 | 245 | 0.0 | 0.0 | 0.00 | 0.00 | 0.00 | 57 | 1005.6 |
| 20260507014046 | 16 | 253 | 0.0 | 0.0 | 0.00 | 0.00 | 0.00 | 57 | 1005.7 |
| 20260507013502 | 16 | 242 | 0.0 | 0.0 | 0.00 | 0.00 | 0.00 | 57 | 1005.7 |
| 20260507013014 | 16 | 186 | 0.0 | 0.0 | 0.00 | 0.00 | 0.00 | 57 | 1005.8 |
| 20260507012526 | 16 | 160 | 0.0 | 0.0 | 0.00 | 0.00 | 0.00 | 57 | 1005.9 |
| 20260507012037 | 16 | 160 | 0.0 | 0.0 | 0.00 | 0.00 | 0.00 | 57 | 1006.0 |
| 20260507011551 | 16 | 140 | 0.0 | 0.0 | 0.00 | 0.00 | 0.00 | 57 | 1006.0 |
| 20260507011102 | 16 | 233 | 1.6 | 0.0 | 0.00 | 0.00 | 0.00 | 57 | 1006.1 |
| 20260507011007 | 16 | 233 | 1.6 | 0.0 | 0.00 | 0.00 | 0.00 | 57 | 1006.1 |
| 20260507010516 | 16 | 233 | 1.6 | 0.0 | 0.00 | 0.00 | 0.00 | 57 | 1006.2 |
| 20260507010048 | 16 | 187 | 1.6 | 0.0 | 0.00 | 0.00 | 0.00 | 57 | 1006.0 |
| 20260507005541 | 16 | 133 | 1.6 | 0.0 | 0.00 | 0.00 | 0.00 | 57 | 1006.1 |
| 20260507005055 | 16 | 150 | 1.6 | 0.0 | 0.00 | 0.00 | 0.00 | 57 | 1006.1 |
| 20260507004506 | 16 | 113 | 0.0 | 0.0 | 0.00 | 0.00 | 0.00 | 57 | 1006.1 |
| 20260507004020 | 16 | 192 | 0.0 | 0.0 | 0.00 | 0.00 | 0.00 | 57 | 1006.2 |
| 20260507003532 | 16 | 184 | 0.0 | 0.0 | 0.00 | 0.00 | 0.00 | 57 | 1006.1 |
| 20260507003044 | 16 | 191 | 0.0 | 0.0 | 0.00 | 0.00 | 0.00 | 57 | 1005.9 |
| 20260507002555 | 16 | 191 | 0.0 | 0.0 | 0.00 | 0.00 | 0.00 | 57 | 1006.0 |
| 20260507002014 | 16 | 142 | 0.0 | 0.0 | 0.00 | 0.00 | 0.00 | 57 | 1006.0 |
| 20260507001520 | 16 | 141 | 1.6 | 0.0 | 0.00 | 0.00 | 0.00 | 57 | 1005.9 |
| 20260507001034 | 16 | 172 | 1.6 | 0.0 | 0.00 | 0.00 | 0.00 | 57 | 1005.8 |
| 20260507000546 | 16 | 231 | 0.0 | 0.0 | 0.00 | 0.00 | 0.00 | 57 | 1005.8 |
| 20260507000058 | 16 | 202 | 0.0 | 0.0 | 0.00 | 0.00 | 0.00 | 57 | 1005.8 |
| 20260506235511 | 16 | 187 | 0.0 | 0.0 | 0.00 | 0.00 | 0.00 | 57 | 1005.6 |
| 20260506235024 | 16 | 187 | 0.0 | 0.0 | 0.00 | 0.00 | 0.00 | 57 | 1005.8 |
| 20260506234534 | 16 | 216 | 0.0 | 0.0 | 0.00 | 0.00 | 0.00 | 57 | 1005.7 |
| 20260506234048 | 16 | 216 | 0.0 | 0.0 | 0.00 | 0.00 | 0.00 | 57 | 1005.7 |
| 20260506233558 | 16 | 187 | 0.0 | 0.0 | 0.00 | 0.00 | 0.00 | 57 | 1005.7 |
| 20260506233015 | 16 | 220 | 0.0 | 0.0 | 0.00 | 0.00 | 0.00 | 57 | 1005.7 |
| 20260506232526 | 16 | 210 | 0.0 | 0.0 | 0.00 | 0.00 | 0.00 | 57 | 1005.6 |
| 20260506232038 | 16 | 154 | 1.6 | 0.0 | 0.00 | 0.00 | 0.00 | 57 | 1005.6 |
| 20260506231605 | 16 | 226 | 1.6 | 0.0 | 0.00 | 0.00 | 0.00 | 57 | 1005.7 |
| 20260506231010 | 16 | 191 | 1.6 | 0.0 | 0.00 | 0.00 | 0.00 | 57 | 1005.7 |
| 20260506230508 | 16 | 120 | 0.0 | 0.0 | 0.00 | 0.00 | 0.00 | 57 | 1005.7 |
| 20260506230019 | 16 | 116 | 0.0 | 0.0 | 0.00 | 0.00 | 0.00 | 57 | 1005.8 |
| 20260506225527 | 16 | 245 | 0.0 | 0.0 | 0.00 | 0.00 | 0.00 | 57 | 1005.7 |
| 20260506225036 | 16 | 142 | 0.0 | 0.0 | 0.00 | 0.00 | 0.00 | 57 | 1005.7 |
| 20260506224552 | 16 | 139 | 1.6 | 0.0 | 0.00 | 0.00 | 0.00 | 57 | 1005.6 |
| 20260506224002 | 17 | 284 | 1.6 | 0.0 | 0.00 | 0.00 | 0.00 | 57 | 1005.8 |
| 20260506223517 | 17 | 120 | 0.0 | 0.0 | 0.00 | 0.00 | 0.00 | 57 | 1005.8 |
| 20260506223026 | 17 | 170 | 0.0 | 0.0 | 0.00 | 0.00 | 0.00 | 57 | 1005.9 |
| 20260506222540 | 17 | 204 | 1.6 | 0.0 | 0.00 | 0.00 | 0.00 | 57 | 1005.8 |
| 20260506222054 | 17 | 166 | 1.6 | 0.0 | 0.00 | 0.00 | 0.00 | 57 | 1005.9 |
| 20260506221506 | 16 | 149 | 0.0 | 0.0 | 0.00 | 0.00 | 0.00 | 57 | 1006.0 |
| 20260506221016 | 16 | 165 | 0.0 | 0.0 | 0.00 | 0.00 | 0.00 | 57 | 1006.1 |
| 20260506220530 | 16 | 170 | 0.0 | 0.0 | 0.00 | 0.00 | 0.00 | 57 | 1006.1 |
| 20260506220050 | 16 | 243 | 0.0 | 0.0 | 0.00 | 0.00 | 0.00 | 57 | 1006.2 |
| 20260506215554 | 16 | 175 | 0.0 | 0.0 | 0.00 | 0.00 | 0.00 | 57 | 1006.1 |
| 20260506215006 | 16 | 158 | 0.0 | 0.0 | 0.00 | 0.00 | 0.00 | 57 | 1006.1 |
| 20260506214520 | 16 | 177 | 0.0 | 0.0 | 0.00 | 0.00 | 0.00 | 57 | 1006.1 |
| 20260506214029 | 16 | 208 | 1.6 | 0.0 | 0.00 | 0.00 | 0.00 | 57 | 1006.2 |
| 20260506213544 | 16 | 151 | 1.6 | 0.0 | 0.00 | 0.00 | 0.00 | 57 | 1006.4 |
| 20260506213109 | 16 | 208 | 0.0 | 0.0 | 0.00 | 0.00 | 0.00 | 57 | 1006.3 |
| 20260506212510 | 15 | 200 | 1.6 | 0.0 | 0.00 | 0.00 | 0.00 | 57 | 1006.5 |
| 20260506212025 | 15 | 207 | 1.6 | 0.0 | 0.00 | 0.00 | 0.00 | 57 | 1006.5 |
| 20260506211535 | 15 | 258 | 1.6 | 0.0 | 0.00 | 0.00 | 0.00 | 57 | 1006.4 |
| 20260506211040 | 15 | 223 | 1.6 | 0.0 | 0.00 | 0.00 | 0.00 | 57 | 1006.4 |
| 20260506210554 | 15 | 216 | 1.6 | 0.0 | 0.00 | 0.00 | 0.00 | 57 | 1006.4 |
| 20260506210012 | 15 | 204 | 1.6 | 0.0 | 0.00 | 0.00 | 0.00 | 57 | 1006.4 |
| 20260506205520 | 15 | 187 | 1.6 | 0.0 | 0.00 | 0.00 | 0.00 | 57 | 1006.6 |
| 20260506205035 | 15 | 191 | 1.6 | 0.0 | 0.00 | 0.00 | 0.00 | 57 | 1006.5 |
| 20260506204544 | 15 | 152 | 1.6 | 0.0 | 0.00 | 0.00 | 0.00 | 57 | 1006.5 |
| 20260506204100 | 15 | 250 | 1.6 | 0.0 | 0.00 | 0.00 | 0.00 | 57 | 1006.6 |
| 20260506203510 | 15 | 257 | 1.6 | 0.0 | 0.00 | 0.00 | 0.00 | 57 | 1006.8 |
| 20260506203024 | 15 | 184 | 1.6 | 0.0 | 0.00 | 0.00 | 0.00 | 57 | 1006.8 |
| 20260506202534 | 15 | 159 | 1.6 | 0.0 | 0.00 | 0.00 | 0.00 | 57 | 1006.7 |
| 20260506202049 | 15 | 204 | 1.6 | 0.0 | 0.00 | 0.00 | 0.00 | 57 | 1006.8 |
| 20260506201558 | 15 | 238 | 1.6 | 0.0 | 0.00 | 0.00 | 0.00 | 57 | 1006.8 |
| 20260506201503 | 15 | 238 | 1.6 | 0.0 | 0.00 | 0.00 | 0.00 | 57 | 1006.7 |
| 20260506201014 | 15 | 289 | 1.6 | 0.0 | 0.00 | 0.00 | 0.00 | 57 | 1006.6 |
| 20260506200524 | 15 | 230 | 1.6 | 0.0 | 0.00 | 0.00 | 0.00 | 57 | 1006.6 |
| 20260506200039 | 15 | 175 | 0.0 | 0.0 | 0.00 | 0.00 | 0.00 | 57 | 1006.6 |
| 20260506195556 | 15 | 270 | 0.0 | 0.0 | 0.00 | 0.00 | 0.00 | 57 | 1006.5 |
| 20260506195004 | 15 | 271 | 1.6 | 0.0 | 0.00 | 0.00 | 0.00 | 57 | 1006.5 |
| 20260506194515 | 15 | 185 | 1.6 | 0.0 | 0.00 | 0.00 | 0.00 | 61 | 1006.5 |
| 20260506194031 | 15 | 185 | 1.6 | 0.0 | 0.00 | 0.00 | 0.00 | 63 | 1006.5 |
| 20260506193538 | 16 | 189 | 1.6 | 0.0 | 0.00 | 0.00 | 0.00 | 73 | 1006.8 |
| 20260506193052 | 16 | 141 | 1.6 | 0.0 | 0.00 | 0.00 | 0.00 | 81 | 1006.9 |
| 20260506192504 | 16 | 167 | 0.0 | 0.0 | 0.00 | 0.00 | 0.00 | 83 | 1006.8 |
| 20260506192015 | 17 | 232 | 0.0 | 0.0 | 0.00 | 0.00 | 0.00 | 91 | 1006.9 |
| 20260506191520 | 17 | 231 | 1.6 | 0.0 | 0.00 | 0.00 | 0.00 | 100 | 1006.9 |
| 20260506191035 | 18 | 239 | 1.6 | 0.0 | 0.00 | 0.00 | 0.00 | 100 | 1006.7 |
| 20260506190547 | 18 | 248 | 1.6 | 0.0 | 0.00 | 0.00 | 0.00 | 100 | 1006.7 |
| 20260506190059 | 19 | 214 | 1.6 | 0.0 | 0.00 | 0.00 | 0.00 | 100 | 1006.8 |
| 20260506185515 | 20 | 253 | 1.6 | 0.0 | 0.00 | 0.00 | 0.00 | 100 | 1006.7 |
| 20260506185024 | 20 | 181 | 1.6 | 0.0 | 0.00 | 0.00 | 0.00 | 100 | 1006.8 |
| 20260506184542 | 20 | 264 | 1.6 | 0.0 | 0.00 | 0.00 | 0.00 | 100 | 1006.8 |
| 20260506184049 | 20 | 168 | 1.6 | 0.0 | 0.00 | 0.00 | 0.00 | 100 | 1006.8 |
| 20260506183505 | 20 | 246 | 3.2 | 0.0 | 0.00 | 0.00 | 0.00 | 100 | 1006.9 |
| 20260506183014 | 20 | 152 | 3.2 | 0.0 | 0.00 | 0.00 | 0.00 | 100 | 1007.0 |
| 20260506182530 | 21 | 262 | 3.2 | 0.0 | 0.00 | 0.00 | 0.00 | 100 | 1006.9 |
| 20260506182038 | 21 | 297 | 3.2 | 0.0 | 0.00 | 0.00 | 0.00 | 100 | 1007.0 |
| 20260506181552 | 21 | 204 | 1.6 | 0.0 | 0.00 | 0.00 | 0.00 | 100 | 1007.0 |
| 20260506181006 | 21 | 194 | 3.2 | 0.0 | 0.00 | 0.00 | 0.00 | 100 | 1007.0 |
| 20260506180519 | 21 | 192 | 3.2 | 0.0 | 0.00 | 0.00 | 0.00 | 100 | 1007.0 |
| 20260506180032 | 21 | 222 | 1.6 | 0.0 | 0.00 | 0.00 | 0.00 | 100 | 1007.0 |
| 20260506175542 | 21 | 295 | 1.6 | 0.0 | 0.00 | 0.00 | 0.00 | 100 | 1007.1 |
| 20260506175052 | 21 | 203 | 3.2 | 0.0 | 0.00 | 0.00 | 0.00 | 100 | 1007.1 |
| 20260506174521 | 22 | 256 | 3.2 | 0.0 | 0.00 | 0.00 | 0.00 | 100 | 1007.0 |
| 20260506174019 | 22 | 204 | 3.2 | 0.0 | 0.00 | 0.00 | 0.00 | 100 | 1007.3 |
| 20260506173533 | 22 | 269 | 3.2 | 0.0 | 0.00 | 0.00 | 0.00 | 100 | 1007.1 |
| 20260506173047 | 22 | 196 | 4.8 | 0.0 | 0.00 | 0.00 | 0.00 | 100 | 1007.2 |
| 20260506172557 | 22 | 271 | 3.2 | 0.0 | 0.00 | 0.00 | 0.00 | 100 | 1007.3 |
| 20260506172009 | 22 | 144 | 3.2 | 0.0 | 0.00 | 0.00 | 0.00 | 100 | 1007.4 |
| 20260506171534 | 22 | 183 | 3.2 | 0.0 | 0.00 | 0.00 | 0.00 | 100 | 1007.3 |
| 20260506171034 | 22 | 171 | 1.6 | 0.0 | 0.00 | 0.00 | 0.00 | 100 | 1007.3 |
| 20260506170547 | 22 | 177 | 1.6 | 0.0 | 0.00 | 0.00 | 0.00 | 100 | 1007.1 |
| 20260506170058 | 22 | 175 | 3.2 | 0.0 | 0.00 | 0.00 | 0.00 | 100 | 1007.2 |
| 20260506170004 | 22 | 158 | 3.2 | 0.0 | 0.00 | 0.00 | 0.00 | 100 | 1007.2 |
| 20260506165512 | 22 | 213 | 3.2 | 0.0 | 0.00 | 0.00 | 0.00 | 100 | 1007.3 |
| 20260506165028 | 22 | 198 | 3.2 | 0.0 | 0.00 | 0.00 | 0.00 | 100 | 1007.4 |
| 20260506164537 | 22 | 133 | 3.2 | 0.0 | 0.00 | 0.00 | 0.00 | 100 | 1007.5 |
| 20260506164053 | 22 | 190 | 1.6 | 0.0 | 0.00 | 0.00 | 0.00 | 100 | 1007.7 |
| 20260506163503 | 22 | 252 | 3.2 | 0.0 | 0.00 | 0.00 | 0.00 | 100 | 1007.6 |
| 20260506163017 | 22 | 264 | 3.2 | 0.0 | 0.00 | 0.00 | 0.00 | 100 | 1007.7 |
| 20260506162530 | 22 | 172 | 1.6 | 0.0 | 0.00 | 0.00 | 0.00 | 100 | 1007.6 |
| 20260506162040 | 22 | 173 | 1.6 | 0.0 | 0.00 | 0.00 | 0.00 | 100 | 1007.7 |
| 20260506161551 | 22 | 265 | 1.6 | 0.0 | 0.00 | 0.00 | 0.00 | 100 | 1007.8 |
| 20260506161007 | 22 | 254 | 1.6 | 0.0 | 0.00 | 0.00 | 0.00 | 100 | 1008.1 |
| 20260506160517 | 22 | 164 | 1.6 | 0.0 | 0.00 | 0.00 | 0.00 | 100 | 1008.1 |
| 20260506160031 | 22 | 202 | 1.6 | 0.0 | 0.00 | 0.00 | 0.00 | 100 | 1008.1 |
| 20260506155538 | 22 | 125 | 1.6 | 0.0 | 0.00 | 0.00 | 0.00 | 100 | 1008.2 |
| 20260506155052 | 21 | 213 | 1.6 | 0.0 | 0.00 | 0.00 | 0.00 | 100 | 1008.3 |
| 20260506154505 | 22 | 258 | 1.6 | 0.0 | 0.00 | 0.00 | 0.00 | 100 | 1008.5 |
| 20260506154019 | 22 | 150 | 3.2 | 0.0 | 0.00 | 0.00 | 0.00 | 100 | 1008.5 |
| 20260506153528 | 22 | 252 | 3.2 | 0.0 | 0.00 | 0.00 | 0.00 | 100 | 1008.6 |
| 20260506153043 | 22 | 159 | 3.2 | 0.0 | 0.00 | 0.00 | 0.00 | 100 | 1008.7 |
| 20260506152552 | 22 | 237 | 1.6 | 0.0 | 0.00 | 0.00 | 0.00 | 100 | 1008.7 |
| 20260506152008 | 22 | 152 | 3.2 | 0.0 | 0.00 | 0.00 | 0.00 | 100 | 1008.7 |
| 20260506151523 | 22 | 202 | 3.2 | 0.0 | 0.00 | 0.00 | 0.00 | 100 | 1008.6 |
| 20260506151034 | 22 | 228 | 3.2 | 0.0 | 0.00 | 0.00 | 0.00 | 100 | 1008.7 |
| 20260506150543 | 22 | 287 | 3.2 | 0.0 | 0.00 | 0.00 | 0.00 | 100 | 1008.8 |
| 20260506150057 | 22 | 190 | 3.2 | 0.0 | 0.00 | 0.00 | 0.00 | 100 | 1009.0 |
| 20260506145513 | 21 | 138 | 1.6 | 0.0 | 0.00 | 0.00 | 0.00 | 100 | 1008.8 |
| 20260506145022 | 21 | 140 | 1.6 | 0.0 | 0.00 | 0.00 | 0.00 | 100 | 1008.9 |
| 20260506144551 | 21 | 127 | 1.6 | 0.0 | 0.00 | 0.00 | 0.00 | 100 | 1008.8 |
| 20260506144047 | 21 | 140 | 1.6 | 0.0 | 0.00 | 0.00 | 0.00 | 100 | 1008.7 |
| 20260506143503 | 21 | 130 | 1.6 | 0.0 | 0.00 | 0.00 | 0.00 | 100 | 1008.8 |
| 20260506143012 | 21 | 120 | 1.6 | 0.0 | 0.00 | 0.00 | 0.00 | 100 | 1008.7 |
| 20260506142526 | 20 | 111 | 1.6 | 0.0 | 0.00 | 0.00 | 0.00 | 100 | 1008.8 |
| 20260506142036 | 20 | 179 | 1.6 | 0.0 | 0.00 | 0.00 | 0.00 | 100 | 1008.8 |
| 20260506141548 | 20 | 174 | 1.6 | 0.0 | 0.00 | 0.00 | 0.00 | 100 | 1008.7 |
| 20260506141059 | 20 | 233 | 1.6 | 0.0 | 0.00 | 0.00 | 0.00 | 100 | 1008.8 |
| 20260506140515 | 20 | 210 | 1.6 | 0.0 | 0.00 | 0.00 | 0.00 | 100 | 1008.8 |
| 20260506140031 | 20 | 126 | 1.6 | 0.0 | 0.00 | 0.00 | 0.00 | 100 | 1008.9 |
| 20260506135538 | 19 | 250 | 1.6 | 0.0 | 0.00 | 0.00 | 0.00 | 100 | 1009.0 |
| 20260506135048 | 19 | 209 | 1.6 | 0.0 | 0.00 | 0.00 | 0.00 | 100 | 1009.0 |
| 20260506134505 | 19 | 215 | 1.6 | 0.0 | 0.00 | 0.00 | 0.00 | 100 | 1008.9 |
| 20260506134014 | 18 | 189 | 1.6 | 0.0 | 0.00 | 0.00 | 0.00 | 100 | 1008.9 |
| 20260506133528 | 18 | 144 | 0.0 | 0.0 | 0.00 | 0.00 | 0.00 | 100 | 1009.2 |
| 20260506133039 | 18 | 176 | 0.0 | 0.0 | 0.00 | 0.00 | 0.00 | 100 | 1009.4 |
| 20260506132554 | 18 | 266 | 0.0 | 0.0 | 0.00 | 0.00 | 0.00 | 100 | 1009.6 |
| 20260506132003 | 18 | 67 | 1.6 | 0.0 | 0.00 | 0.00 | 0.00 | 100 | 1009.5 |
| 20260506131517 | 18 | 254 | 1.6 | 0.0 | 0.00 | 0.00 | 0.00 | 100 | 1009.7 |
| 20260506131029 | 18 | 195 | 1.6 | 0.0 | 0.00 | 0.00 | 0.00 | 100 | 1009.6 |
| 20260506130541 | 17 | 208 | 0.0 | 0.0 | 0.00 | 0.00 | 0.00 | 100 | 1009.5 |
| 20260506130054 | 17 | 134 | 0.0 | 0.0 | 0.00 | 0.00 | 0.00 | 100 | 1009.4 |
| 20260506125506 | 17 | 167 | 0.0 | 0.0 | 0.00 | 0.00 | 0.00 | 100 | 1009.3 |
| 20260506125022 | 17 | 165 | 1.6 | 0.0 | 0.00 | 0.00 | 0.00 | 100 | 1009.4 |
| 20260506124534 | 17 | 141 | 1.6 | 0.0 | 0.00 | 0.00 | 0.00 | 100 | 1009.5 |
| 20260506124045 | 16 | 216 | 1.6 | 0.0 | 0.00 | 0.00 | 0.00 | 100 | 1009.4 |
| 20260506123555 | 16 | 256 | 1.6 | 0.0 | 0.00 | 0.00 | 0.00 | 100 | 1009.6 |
| 20260506123011 | 16 | 210 | 0.0 | 0.0 | 0.00 | 0.00 | 0.00 | 100 | 1009.7 |
| 20260506122521 | 16 | 172 | 0.0 | 0.0 | 0.00 | 0.00 | 0.00 | 97 | 1009.7 |
| 20260506122037 | 16 | 135 | 0.0 | 0.0 | 0.00 | 0.00 | 0.00 | 94 | 1009.7 |
| 20260506121544 | 15 | 181 | 1.6 | 0.0 | 0.00 | 0.00 | 0.00 | 92 | 1009.7 |
| 20260506121058 | 15 | 146 | 1.6 | 0.0 | 0.00 | 0.00 | 0.00 | 91 | 1009.6 |
| 20260506121001 | 15 | 146 | 1.6 | 0.0 | 0.00 | 0.00 | 0.00 | 91 | 1009.6 |
| 20260506120511 | 15 | 176 | 0.0 | 0.0 | 0.00 | 0.00 | 0.00 | 85 | 1009.7 |
| 20260506120026 | 15 | 144 | 0.0 | 0.0 | 0.00 | 0.00 | 0.00 | 84 | 1009.7 |
| 20260506115535 | 15 | 175 | 1.6 | 0.0 | 0.00 | 0.00 | 0.00 | 84 | 1009.9 |
| 20260506115048 | 15 | 170 | 0.0 | 0.0 | 0.00 | 0.00 | 0.00 | 84 | 1010.0 |
| 20260506114559 | 15 | 191 | 0.0 | 0.0 | 0.00 | 0.00 | 0.00 | 82 | 1009.9 |
| 20260506114503 | 15 | 192 | 0.0 | 0.0 | 0.00 | 0.00 | 0.00 | 82 | 1009.9 |
| 20260506114015 | 15 | 208 | 0.0 | 0.0 | 0.00 | 0.00 | 0.00 | 84 | 1009.8 |
| 20260506113525 | 15 | 208 | 0.0 | 0.0 | 0.00 | 0.00 | 0.00 | 84 | 1010.1 |
| 20260506113039 | 15 | 210 | 0.0 | 0.0 | 0.00 | 0.00 | 0.00 | 82 | 1010.3 |
| 20260506112524 | 15 | 210 | 0.0 | 0.0 | 0.00 | 0.00 | 0.00 | 82 | 1010.2 |
| 20260506112038 | 15 | 214 | 0.0 | 0.0 | 0.00 | 0.00 | 0.00 | 82 | 1010.2 |
| 20260506111549 | 14 | 201 | 0.0 | 0.0 | 0.00 | 0.00 | 0.00 | 81 | 1010.0 |
| 20260506111006 | 14 | 207 | 0.0 | 0.0 | 0.00 | 0.00 | 0.00 | 80 | 1010.0 |
| 20260506110519 | 14 | 206 | 0.0 | 0.0 | 0.00 | 0.00 | 0.00 | 80 | 1010.0 |
| 20260506110033 | 14 | 210 | 0.0 | 0.0 | 0.00 | 0.00 | 0.00 | 79 | 1009.9 |
| 20260506105539 | 14 | 148 | 0.0 | 0.0 | 0.00 | 0.00 | 0.00 | 78 | 1009.9 |
| 20260506105055 | 14 | 139 | 0.0 | 0.0 | 0.00 | 0.00 | 0.00 | 78 | 1009.9 |
| 20260506104509 | 14 | 139 | 0.0 | 0.0 | 0.00 | 0.00 | 0.00 | 79 | 1009.9 |
| 20260506104019 | 14 | 138 | 0.0 | 0.0 | 0.00 | 0.00 | 0.00 | 79 | 1009.9 |
| 20260506103537 | 14 | 245 | 0.0 | 0.0 | 0.00 | 0.00 | 0.00 | 80 | 1010.0 |
| 20260506103044 | 14 | 245 | 0.0 | 0.0 | 0.00 | 0.00 | 0.00 | 80 | 1010.1 |
| 20260506102601 | 14 | 245 | 0.0 | 0.0 | 0.00 | 0.00 | 0.00 | 80 | 1010.0 |
| 20260506102009 | 14 | 256 | 0.0 | 0.0 | 0.00 | 0.00 | 0.00 | 82 | 1010.0 |
| 20260506101524 | 14 | 256 | 0.0 | 0.0 | 0.00 | 0.00 | 0.00 | 82 | 1010.1 |
| 20260506101034 | 14 | 252 | 0.0 | 0.0 | 0.00 | 0.00 | 0.00 | 83 | 1010.0 |
| 20260506100546 | 14 | 201 | 0.0 | 0.0 | 0.00 | 0.00 | 0.00 | 84 | 1009.9 |
| 20260506100111 | 14 | 201 | 0.0 | 0.0 | 0.00 | 0.00 | 0.00 | 85 | 1009.8 |
| 20260506095510 | 14 | 210 | 0.0 | 0.0 | 0.00 | 0.00 | 0.00 | 87 | 1009.9 |
| 20260506095015 | 14 | 210 | 0.0 | 0.0 | 0.00 | 0.00 | 0.00 | 88 | 1009.7 |
| 20260506094529 | 15 | 210 | 0.0 | 0.0 | 0.00 | 0.00 | 0.00 | 90 | 1009.7 |
| 20260506094049 | 15 | 210 | 0.0 | 0.0 | 0.00 | 0.00 | 0.00 | 90 | 1009.7 |
| 20260506093528 | 15 | 229 | 0.0 | 0.0 | 0.00 | 0.00 | 0.00 | 92 | 1009.7 |
| 20260506093038 | 15 | 233 | 0.0 | 0.0 | 0.00 | 0.00 | 0.00 | 94 | 1009.9 |
| 20260506092553 | 15 | 229 | 0.0 | 0.0 | 0.00 | 0.00 | 0.00 | 95 | 1009.9 |
| 20260506092005 | 15 | 231 | 0.0 | 0.0 | 0.00 | 0.00 | 0.00 | 96 | 1009.8 |
| 20260506091521 | 15 | 230 | 0.0 | 0.0 | 0.00 | 0.00 | 0.00 | 96 | 1009.8 |
| 20260506091031 | 15 | 231 | 0.0 | 0.0 | 0.00 | 0.00 | 0.00 | 98 | 1009.8 |
| 20260506090542 | 15 | 198 | 0.0 | 0.0 | 0.00 | 0.00 | 0.00 | 99 | 1009.7 |
| 20260506090053 | 15 | 198 | 0.0 | 0.0 | 0.00 | 0.00 | 0.00 | 100 | 1009.7 |
| 20260506085508 | 15 | 198 | 0.0 | 0.0 | 0.00 | 0.00 | 0.00 | 100 | 1009.8 |
| 20260506085018 | 15 | 195 | 0.0 | 0.0 | 0.00 | 0.00 | 0.00 | 100 | 1009.9 |
| 20260506084539 | 15 | 195 | 0.0 | 0.0 | 0.00 | 0.00 | 0.00 | 100 | 1009.9 |
| 20260506084043 | 15 | 152 | 1.6 | 0.0 | 0.00 | 0.00 | 0.00 | 100 | 1009.8 |
| 20260506083557 | 15 | 193 | 1.6 | 0.0 | 0.00 | 0.00 | 0.00 | 100 | 1009.9 |
| 20260506083014 | 15 | 225 | 0.0 | 0.0 | 0.00 | 0.00 | 0.00 | 100 | 1009.9 |
| 20260506082522 | 15 | 173 | 0.0 | 0.0 | 0.00 | 0.00 | 0.00 | 100 | 1009.9 |
| 20260506082037 | 16 | 158 | 0.0 | 0.0 | 0.00 | 0.00 | 0.00 | 100 | 1009.9 |
| 20260506081549 | 16 | 273 | 0.0 | 0.0 | 0.00 | 0.00 | 0.00 | 100 | 1009.9 |
| 20260506081003 | 16 | 170 | 0.0 | 0.0 | 0.00 | 0.00 | 0.00 | 100 | 1009.9 |
| 20260506080513 | 16 | 262 | 0.0 | 0.0 | 0.00 | 0.00 | 0.00 | 100 | 1009.9 |
| 20260506073525 | 16 | 235 | 0.0 | 0.0 | 0.00 | 0.00 | 0.00 | 100 | 1009.9 |
| 20260506073039 | 16 | 194 | 0.0 | 0.0 | 0.00 | 0.00 | 0.00 | 100 | 1009.9 |
| 20260506072549 | 16 | 264 | 0.0 | 0.0 | 0.00 | 0.00 | 0.00 | 100 | 1009.8 |
| 20260506072008 | 16 | 160 | 0.0 | 0.0 | 0.00 | 0.00 | 0.00 | 100 | 1009.8 |
| 20260506071514 | 16 | 208 | 1.6 | 0.0 | 0.00 | 0.00 | 0.00 | 100 | 1009.8 |
| 20260506071028 | 16 | 228 | 1.6 | 0.0 | 0.00 | 0.00 | 0.00 | 100 | 1009.7 |
| 20260506070541 | 16 | 169 | 1.6 | 0.0 | 0.00 | 0.00 | 0.00 | 100 | 1009.7 |
| 20260506062035 | 17 | 210 | 1.6 | 0.0 | 0.00 | 0.00 | 0.00 | 100 | 1009.4 |
| 20260506061548 | 17 | 181 | 1.6 | 0.0 | 0.00 | 0.00 | 0.00 | 100 | 1009.4 |
| 20260506061057 | 17 | 208 | 1.6 | 0.0 | 0.00 | 0.00 | 0.00 | 100 | 1009.3 |
| 20260506060513 | 17 | 227 | 1.6 | 0.0 | 0.00 | 0.00 | 0.00 | 100 | 1009.4 |
| 20260506051025 | 17 | 142 | 1.6 | 0.0 | 0.00 | 0.00 | 0.00 | 100 | 1009.8 |
| 20260506050543 | 17 | 249 | 1.6 | 0.0 | 0.00 | 0.00 | 0.00 | 100 | 1009.9 |
| 20260506045008 | 17 | 280 | 0.0 | 0.0 | 0.00 | 0.00 | 0.00 | 100 | 1010.0 |
| 20260506044529 | 17 | 280 | 0.0 | 0.0 | 0.00 | 0.00 | 0.00 | 100 | 1010.0 |
| 20260506044032 | 17 | 231 | 0.0 | 0.0 | 0.00 | 0.00 | 0.00 | 100 | 1010.0 |
| 20260506043547 | 17 | 183 | 0.0 | 0.0 | 0.00 | 0.00 | 0.00 | 100 | 1009.9 |
| 20260506043057 | 17 | 234 | 1.6 | 0.0 | 0.00 | 0.00 | 0.00 | 100 | 1009.9 |
| 20260506043004 | 17 | 234 | 1.6 | 0.0 | 0.00 | 0.00 | 0.00 | 100 | 1010.0 |
| 20260506042517 | 17 | 116 | 1.6 | 0.0 | 0.00 | 0.00 | 0.00 | 100 | 1010.1 |
| 20260506042028 | 17 | 208 | 0.0 | 0.0 | 0.00 | 0.00 | 0.00 | 100 | 1010.0 |
| 20260506041537 | 17 | 212 | 1.6 | 0.0 | 0.00 | 0.00 | 0.00 | 100 | 1010.1 |
| 20260506041052 | 17 | 158 | 1.6 | 0.0 | 0.00 | 0.00 | 0.00 | 100 | 1010.0 |
| 20260506040506 | 17 | 123 | 1.6 | 0.0 | 0.00 | 0.00 | 0.00 | 100 | 1010.0 |
| 20260506040017 | 17 | 77 | 1.6 | 0.0 | 0.00 | 0.00 | 0.00 | 100 | 1010.0 |
| 20260506035524 | 17 | 248 | 1.6 | 0.0 | 0.00 | 0.00 | 0.00 | 100 | 1009.9 |
| 20260506035033 | 17 | 252 | 1.6 | 0.0 | 0.00 | 0.00 | 0.00 | 100 | 1009.9 |
| 20260506034543 | 17 | 227 | 1.6 | 0.0 | 0.00 | 0.00 | 0.00 | 100 | 1010.0 |
| 20260506034056 | 17 | 236 | 1.6 | 0.0 | 0.00 | 0.00 | 0.00 | 100 | 1009.9 |
| 20260506033508 | 17 | 167 | 1.6 | 0.0 | 0.00 | 0.00 | 0.00 | 100 | 1009.9 |
| 20260506033028 | 17 | 208 | 1.6 | 0.0 | 0.00 | 0.00 | 0.00 | 100 | 1009.8 |
| 20260506032529 | 17 | 202 | 1.6 | 0.0 | 0.00 | 0.00 | 0.00 | 100 | 1009.8 |
| 20260506032043 | 17 | 194 | 1.6 | 0.0 | 0.00 | 0.00 | 0.00 | 100 | 1009.8 |
| 20260506031553 | 17 | 182 | 1.6 | 0.0 | 0.00 | 0.00 | 0.00 | 100 | 1009.8 |